Weather History for PGSN - November, 2011

Change the Weather History Date:

Thursday, November 10, 2011

  Actual Average (WUND) Record (WUND)
Temperature  
Mean Temperature 82 °F -  
Max Temperature 86 °F - - (-1)
Min Temperature 78 °F - - (-1)
Cooling Degree Days 17    
Growing Degree Days 32 (Base 50)    
Moisture  
Dew Point 73 °F    
Average Humidity 77    
Maximum Humidity 90    
Minimum Humidity 67    
Precipitation  
Precipitation 0.00 in - - ()
Sea Level Pressure  
Sea Level Pressure 29.95 in    
Wind  
Wind Speed 10 mph (ENE)    
Max Wind Speed 15 mph    
Max Gust Speed -    
Visibility 10 miles    
Events      
Averages and records for this station are not official NWS values.
T = Trace of Precipitation, MM = Missing Value Source: NWS Daily Summary

Daily Weather History Graph

Daily Weather History Graph

Search for Another Location

Airport or City:

Trip Planner

Search our weather history database for the weather conditions in past years. The results will help you decide how hot, cold, wet, or windy it might be!

Date:

Astronomy

Nov. 10, 2011 Rise Set
Actual Time 6:16 AM ChST 5:45 PM ChST
Civil Twilight 5:53 AM ChST 6:07 PM ChST
Nautical Twilight 5:28 AM ChST 6:33 PM ChST
Astronomical Twilight 5:02 AM ChST 6:59 PM ChST
Moon 5:13 PM ChST (11/10) 5:29 AM ChST (11/10)
Length of Visible Light 12h 14m
Length of Day
11h 29m
Waxing Gibbous, 99% of the Moon is Illuminated
Nov 10
Waxing Gibbous
Nov 11
Full
Nov 19
Last Quarter
Nov 25
New
Dec 2
First Quarter

Hourly Weather History & Observations

Time (ChST) Temp. Heat Index Dew Point Humidity Pressure Visibility Wind Dir Wind Speed Gust Speed Precip Events Conditions
12:54 AM 78.1 °F - 75.0 °F 90% 29.93 in 10.0 mi ENE 6.9 mph - N/A   Partly Cloudy
1:54 AM 79.0 °F - 73.9 °F 84% 29.92 in 10.0 mi East 10.4 mph - N/A   Partly Cloudy
2:54 AM 79.0 °F - 73.0 °F 82% 29.92 in 10.0 mi East 10.4 mph - N/A   Partly Cloudy
3:54 AM 78.1 °F - 73.0 °F 84% 29.92 in 10.0 mi East 8.1 mph - N/A   Partly Cloudy
4:54 AM 78.1 °F - 73.0 °F 84% 29.92 in 10.0 mi East 6.9 mph - N/A   Partly Cloudy
5:54 AM 79.0 °F - 73.0 °F 82% 29.94 in 10.0 mi East 11.5 mph - N/A   Scattered Clouds
6:54 AM 79.0 °F - 73.0 °F 82% 29.96 in 10.0 mi East 6.9 mph - N/A   Scattered Clouds
7:54 AM 82.0 °F 86.7 °F 72.0 °F 71% 29.98 in 10.0 mi East 10.4 mph - N/A   Partly Cloudy
8:54 AM 82.9 °F 88.0 °F 72.0 °F 69% 29.99 in 10.0 mi East 9.2 mph - N/A   Mostly Cloudy
9:54 AM 84.0 °F 91.2 °F 73.9 °F 72% 29.99 in 10.0 mi East 11.5 mph - N/A   Scattered Clouds
10:54 AM 84.9 °F 91.4 °F 73.0 °F 67% 29.97 in 10.0 mi ENE 13.8 mph - N/A   Mostly Cloudy
11:54 AM 86.0 °F 93.8 °F 73.9 °F 67% 29.95 in 10.0 mi East 11.5 mph - N/A   Scattered Clouds
12:54 PM 86.0 °F 93.8 °F 73.9 °F 67% 29.92 in 10.0 mi East 12.7 mph - N/A   Scattered Clouds
1:54 PM 84.9 °F 92.1 °F 73.9 °F 69% 29.90 in 10.0 mi ENE 13.8 mph - N/A   Scattered Clouds
2:54 PM 84.9 °F 92.1 °F 73.9 °F 69% 29.90 in 10.0 mi East 13.8 mph - N/A   Scattered Clouds
3:54 PM 84.0 °F 91.2 °F 73.9 °F 72% 29.90 in 10.0 mi East 15.0 mph - N/A   Overcast
4:54 PM 82.0 °F 87.9 °F 73.9 °F 76% 29.91 in 10.0 mi ENE 13.8 mph - N/A   Scattered Clouds
5:54 PM 80.1 °F 84.5 °F 73.9 °F 81% 29.92 in 10.0 mi ENE 8.1 mph - N/A   Mostly Cloudy
6:54 PM 79.0 °F - 73.9 °F 84% 29.94 in 10.0 mi ENE 8.1 mph - N/A   Partly Cloudy
7:54 PM 80.1 °F 84.2 °F 73.0 °F 79% 29.96 in 10.0 mi East 9.2 mph - N/A   Scattered Clouds
8:54 PM 80.1 °F 84.2 °F 73.0 °F 79% 29.98 in 10.0 mi ENE 12.7 mph - N/A   Partly Cloudy
9:54 PM 80.1 °F 84.2 °F 73.0 °F 79% 29.99 in 10.0 mi East 10.4 mph - N/A   Partly Cloudy
10:54 PM 80.1 °F 84.2 °F 73.0 °F 79% 29.99 in 10.0 mi ENE 12.7 mph - N/A   Partly Cloudy
11:54 PM 79.0 °F - 72.0 °F 79% 30.00 in 10.0 mi ENE 9.2 mph - N/A   Scattered Clouds